sat.trackr.live / text

‹ back to catalog

STARLINK-11633 [DTC]

NORAD 63317 · 2025-057L

PAYLOAD ACTIVE UNKNOWN

§ Identity

Operator
Country
US
Launch date
2025-03-18
Launch site
AFETR
Launch vehicle
Mass (kg)
RCS (m²)

Purposes: comms

External: N2YO · Heavens-Above · Gunter

§ Orbital elements

Epoch: 2026-09-20T21:35:39.727968Z

Period
91.68 min
Inclination
42.9999°
Eccentricity
0.0000965
Mean motion
15.70708383 rev/d
Perigee alt
356.2 km
Apogee alt
357.5 km
Semi-major
6,735.0 km
B*
2.5060e-3
RAAN
167.4600°
Arg perigee
253.4259°
Mean anomaly
106.6503°
Rev number
8,788

§ Raw data

STARLINK-11633 [DTC]1 63317U 25057L   26263.89976537  .00332478  00000+0  25060-2 0  99932 63317  42.9999 167.4600 0000965 253.4259 106.6503 15.70708383 87882

JSON: /api/v1/satellites/63317 · /tle

For live sub-satellite position, see the globe view (requires WebGL).

§ Visibility from observer

Set your observer location to see the next 7 days of passes ≥ 10°. The values pass through the URL so the page stays shareable.

No JS? Fill the form by hand. The geolocation button needs JavaScript.